www.pogodaiklimat.ru

Погода и климат >> Архив погоды >> Япония >> Tokyo


АРХИВ ПОГОДЫ в Tokyo

Время (UTC), дата Ветер
(напр.,м/с)
 
Видим.   Явления Облачность Т
(С)
Тd
(С)
f
(%)
Тe
(С)
Тes
(С)
Комфортность P
(гПа)
Po
(гПа)
Тmin
(С)
Tmax
(С)
R
(мм)
R24
(мм)
S
(см)
05 22.04 В 2 н/о н/о +17.9 +7.9 52 +19 +19 по сезону 1006.1 1003.3
04 22.04 В 2 н/о н/о +17.4 +6.9 50 +18 +18 по сезону 1006.9 1004.1
06 22.04 СВ 2 15 км 9/9
[Cu Sc]
+16.9 +7.8 55 +17 +18 по сезону 1006.2 1003.4
07 22.04 СЗ 2 н/о н/о +16.4 +8.4 59 +17 +17 по сезону 1006.6 1003.7
08 22.04 СВ 2 н/о н/о +15.9 +8.9 63 +16 +16 по сезону 1007.1 1004.2
09 22.04 ЮВ 2 8000 м слабый ливневой дождь 10/8
[Cu med, cong Ac As]
+12.8 +12.5 98 +12 +12 прохладно 1008.5 1005.6
11 22.04 В 2 н/о н/о +11.9 +11.4 97 +11 +11 прохладно 1010.6 1007.7
10 22.04 Ю 2 н/о н/о +12.5 +12.4 99 +11 +11 прохладно 1009.5 1006.6
12 22.04 СВ 4 8000 м слабый ливневой дождь 10/10 600 м
[Cu med, cong]
+11.1 +10.7 97 +9 +9 холодно 1011.7 1008.8 +18.4 11
13 22.04 С 2 н/о н/о +10.8 +9.7 93 +9 +9 прохладно 1012.3 1009.4
14 22.04 С 3 н/о н/о +10.0 +9.2 95 +8 +8 холодно 1013.0 1010.1
15 22.04 СЗ 3 н/о н/о +9.8 +8.9 94 +7 +7 холодно 1013.1 1010.2
17 22.04 ЮЗ 1 н/о н/о +9.0 +8.7 98 +8 +8 по сезону 1012.3 1009.4
16 22.04 СЗ 2 н/о н/о +9.5 +8.6 94 +8 +8 прохладно 1012.6 1009.7
18 22.04 С 3 15 км {ливн. осадки} 10/10
[Cu Sc]
+9.6 +7.9 89 +7 +7 холодно 1012.9 1010.0 5
19 22.04 С 2 н/о н/о +9.3 +8.2 93 +8 +8 прохладно 1013.4 1010.5
20 22.04 СЗ 1 н/о н/о +9.5 +8.4 93 +9 +9 прохладно 1013.9 1011.0
21 22.04 СЗ 1 20 км 9/9
[Cu med, cong]
+10.2 +8.6 90 +10 +10 прохладно 1014.9 1012.0
23 22.04 С 3 н/о н/о +12.8 +3.5 53 +12 +12 по сезону 1016.0 1013.1
22 22.04 СЗ 3 н/о н/о +11.0 +6.8 75 +9 +9 холодно 1015.4 1012.5
00 23.04 С 2 30 км 1/1
[Cu med, cong]
+14.3 +3.8 49 +14 +25 опасность
простуды
1016.4 1013.5 +8.8 5
01 23.04 СЗ 3 н/о н/о +16.4 +2.4 39 +16 +16 по сезону 1016.5 1013.6
02 23.04 С 4 н/о н/о +16.8 +2.8 39 +16 +16 по сезону 1016.5 1013.6
03 23.04 СЗ 3 30 км 1/1
[Cu med, cong]
+17.6 +3.1 38 +18 +33 опасность
простуды
1016.1 1013.2
05 23.04 С 3 н/о н/о +19.2 +2.1 32 +20 +20 тепло 1015.6 1012.8
04 23.04 СЗ 2 н/о н/о +18.1 +0.7 31 +19 +19 по сезону 1015.9 1013.0
06 23.04 СВ 2 30 км 1/1
[Cu med, cong]
+19.2 +2.6 33 +20 +28 тепло 1015.6 1012.8
07 23.04 ЮВ 5 н/о н/о +17.1 +6.6 50 +17 +17 по сезону 1016.8 1013.9
08 23.04 В 4 н/о н/о +15.1 +5.9 54 +14 +14 прохладно 1017.8 1014.9
09 23.04 ЮВ 5 20 км 6/6
[Cu Sc]
+14.1 +5.2 55 +13 +13 прохладно 1018.8 1015.9
11 23.04 В 3 н/о н/о +13.5 +3.9 52 +13 +13 по сезону 1021.9 1019.0
10 23.04 ЮВ 5 н/о н/о +13.5 +5.4 58 +12 +12 прохладно 1020.1 1017.2
12 23.04 ЮВ 3 20 км 6/6
[Sc]
+12.6 +3.8 55 +12 +12 прохладно 1023.2 1020.3 +20.3
13 23.04 ЮВ 3 н/о н/о +12.2 +4.4 59 +11 +11 по сезону 1023.7 1020.8
14 23.04 ЮВ 2 н/о н/о +12.5 +4.5 58 +12 +12 по сезону 1023.8 1020.9
15 23.04 В 2 н/о н/о +12.6 +4.8 59 +12 +12 по сезону 1024.0 1021.1
17 23.04 ЮВ 2 н/о н/о +12.6 +5.1 60 +12 +12 по сезону 1024.5 1021.6
16 23.04 ЮВ 3 н/о н/о +12.8 +4.8 58 +12 +12 по сезону 1024.2 1021.3
18 23.04 Ю 1 20 км 9/8
[Sc Ac trans]
+11.1 +5.2 67 +11 +11 по сезону 1025.0 1022.0
19 23.04 ЮВ 3 н/о н/о +10.9 +5.7 70 +9 +9 прохладно 1025.1 1022.1
20 23.04 В 1 н/о н/о +10.6 +5.4 70 +10 +10 прохладно 1025.8 1022.8
21 23.04 СВ 2 25 км 8/6
[Cu Sc Ac trans]
+12.0 +6.7 70 +11 +12 прохладно 1026.9 1023.9
23 23.04 ЮВ 2 н/о н/о +14.1 +6.7 61 +14 +14 по сезону 1027.6 1024.7
22 23.04 СВ 2 н/о н/о +13.0 +5.9 62 +13 +13 по сезону 1027.5 1024.6
00 24.04 Ю 2 25 км 9/9
[Cu Sc]
+14.1 +6.2 59 +14 +15 по сезону 1027.7 1024.8 +10.1
01 24.04 В 1 н/о н/о +15.2 +7.3 59 +16 +16 по сезону 1027.8 1024.9
02 24.04 В 2 н/о н/о +16.1 +6.0 51 +16 +16 по сезону 1027.3 1024.4
03 24.04 ЮВ 3 25 км 6/6
[Cu Sc]
+17.4 +6.6 49 +17 +24 по сезону 1026.9 1024.0
05 24.04 Ю 5 н/о н/о +17.8 +5.7 45 +17 +17 по сезону 1026.2 1023.3
04 24.04 ЮЗ 2 н/о н/о +17.3 +5.9 47 +18 +18 по сезону 1026.7 1023.8
06 24.04 ЮВ 4 25 км 3/3
[Cu med, cong]
+18.6 +6.8 46 +19 +23 по сезону 1025.8 1022.9
07 24.04 Ю 4 н/о н/о +17.2 +8.1 55 +17 +17 по сезону 1025.8 1022.9
08 24.04 ЮВ 5 н/о н/о +15.9 +7.7 58 +15 +15 по сезону 1026.2 1023.3
09 24.04 ЮВ 4 25 км 4/3
[Cu med, cong Ci fib]
+15.4 +8.9 65 +15 +15 по сезону 1026.2 1023.3
11 24.04 Ю 5 н/о н/о +14.9 +8.4 65 +13 +13 по сезону 1027.8 1024.9
10 24.04 Ю 4 н/о н/о +15.0 +8.9 67 +14 +14 по сезону 1026.9 1024.0
12 24.04 Ю 3 20 км 6/4
[Cu Sc Ci fib]
+14.1 +8.7 70 +13 +13 по сезону 1028.4 1025.5 +19.6
13 24.04 Ю 4 н/о н/о +13.7 +7.7 67 +12 +12 по сезону 1028.3 1025.4
14 24.04 Ю 4 н/о н/о +14.2 +7.7 65 +13 +13 по сезону 1028.1 1025.2
15 24.04 Ю 4 н/о н/о +13.7 +7.9 68 +12 +12 по сезону 1028.0 1025.1
17 24.04 Ю 3 н/о н/о +13.2 +9.1 76 +12 +12 по сезону 1027.2 1024.3
16 24.04 ЮВ 3 н/о н/о +13.8 +8.9 72 +13 +13 по сезону 1027.5 1024.6
18 24.04 Ю 3 20 км 3/3
[Cu Sc]
+12.2 +9.0 81 +11 +11 по сезону 1027.4 1024.4
19 24.04 ЮВ 3 н/о н/о +13.1 +9.7 80 +12 +12 по сезону 1027.1 1024.2
20 24.04 ЮВ 4 н/о н/о +12.8 +9.3 79 +11 +11 прохладно 1027.1 1024.2
21 24.04 Ю 3 20 км 6/4
[Cu Sc Ci fib]
+13.6 +9.3 75 +13 +13 по сезону 1027.5 1024.6
23 24.04 Ю 3 н/о н/о +15.5 +8.0 61 +15 +15 по сезону 1028.0 1025.1
22 24.04 Ю 3 н/о н/о +15.0 +8.5 65 +15 +15 по сезону 1028.0 1025.1
00 25.04 Ю 5 25 км 9/9
[Cu med, cong]
+17.5 +7.6 52 +17 +18 по сезону 1027.9 1025.0 +12.0
01 25.04 Ю 4 н/о н/о +17.1 +7.5 53 +17 +17 по сезону 1027.9 1025.0
02 25.04 ЮВ 6 н/о н/о +18.7 +7.2 47 +19 +19 тепло 1027.0 1024.1
03 25.04 ЮВ 6 25 км 6/1
[Cu hum Ac trans Ci fib]
+20.0 +7.1 43 +21 +26 комфорт 1025.8 1022.9
05 25.04 ЮВ 6 н/о н/о +20.3 +6.3 40 +21 +21 комфорт 1024.5 1021.6
04 25.04 Ю 4 н/о н/о +20.0 +6.0 40 +21 +21 комфорт 1025.0 1022.1
06 25.04 Ю 7 25 км 3/1
[Cu med, cong Ci sp]
+20.0 +8.0 46 +21 +23 комфорт 1023.5 1020.6
07 25.04 Ю 8 н/о н/о +18.1 +6.3 46 +17 +17 по сезону 1023.2 1020.3
08 25.04 Ю 7 н/о н/о +16.9 +7.6 54 +16 +16 по сезону 1024.1 1021.2
09 25.04 Ю 7 25 км 9/1
[Cu hum Ac trans Ci sp]
+16.0 +9.4 65 +15 +15 по сезону 1023.7 1020.8
11 25.04 Ю 7 н/о н/о +15.4 +9.8 69 +14 +14 по сезону 1024.3 1021.4
10 25.04 Ю 8 н/о н/о +15.5 +9.9 69 +14 +14 по сезону 1023.7 1020.8
12 25.04 Ю 6 20 км 9/1
[Cu hum Ci sp]
+15.2 +10.2 72 +14 +14 по сезону 1024.0 1021.1 +21.0
13 25.04 Ю 3 н/о н/о +14.9 +10.1 73 +14 +14 по сезону 1023.6 1020.7
14 25.04 Ю 5 н/о н/о +15.0 +10.2 73 +14 +14 по сезону 1023.5 1020.6
15 25.04 Ю 4 н/о н/о +15.1 +10.3 73 +14 +14 по сезону 1022.7 1019.8
17 25.04 Ю 4 н/о н/о +14.7 +11.1 79 +13 +13 по сезону 1021.5 1018.6
16 25.04 Ю 4 н/о н/о +14.9 +10.5 75 +14 +14 по сезону 1022.1 1019.2
18 25.04 Ю 4 20 км 9/1
[Cu hum Ci sp]
+14.6 +11.4 81 +13 +13 по сезону 1020.6 1017.7
19 25.04 Ю 3 н/о н/о +14.2 +11.5 84 +13 +13 по сезону 1020.2 1017.3
20 25.04 Ю 3 н/о н/о +14.7 +11.1 79 +14 +14 по сезону 1019.7 1016.8
21 25.04 Ю 4 20 км 9/1
[Cu hum Ac trans Ci sp]
+15.2 +10.8 75 +14 +14 по сезону 1019.5 1016.6
23 25.04 Ю 5 н/о н/о +16.7 +11.4 71 +16 +16 по сезону 1018.1 1015.2
22 25.04 Ю 5 н/о н/о +16.3 +11.3 72 +15 +15 по сезону 1018.9 1016.0
00 26.04 Ю 5 20 км 10/3
[Cu med, cong Ac As]
+17.6 +11.2 66 +17 +18 по сезону 1017.4 1014.5 +13.9
01 26.04 Ю 6 н/о н/о +17.6 +10.7 64 +17 +17 по сезону 1017.0 1014.1
02 26.04 Ю 6 н/о н/о +17.8 +11.6 67 +17 +17 по сезону 1015.7 1012.8
03 26.04 Ю 6 20 км 10/6
[Cu med, cong Ac As]
+17.9 +11.9 68 +17 +18 по сезону 1014.9 1012.0
05 26.04 Ю 7 н/о н/о +18.6 +11.4 63 +18 +18 по сезону 1012.8 1010.0
04 26.04 Ю 7 н/о н/о +18.7 +12.0 65 +19 +19 по сезону 1013.7 1010.9
06 26.04 Ю 8 20 км 10/8
[Cu Sc Ac As]
+19.0 +11.8 63 +19 +19 по сезону 1011.9 1009.1
07 26.04 Ю 6 н/о н/о +18.3 +12.1 67 +18 +18 по сезону 1011.3 1008.5
08 26.04 Ю 5 н/о н/о +18.0 +11.6 66 +18 +18 по сезону 1010.5 1007.7
09 26.04 Ю 5 20 км 9/3
[Cu Sc Ac As]
+17.4 +11.9 70 +17 +17 по сезону 1009.9 1007.1
11 26.04 Ю 3 н/о н/о +17.0 +11.7 71 +17 +17 тепло 1009.0 1006.1
10 26.04 Ю 4 н/о н/о +17.1 +11.6 70 +17 +17 тепло 1009.5 1006.6
12 26.04 Ю 5 20 км 10/4
[Cu Sc Ac As]
+16.8 +11.9 73 +16 +16 по сезону 1008.6 1005.7 +19.4
13 26.04 Ю 5 н/о н/о +17.2 +11.0 67 +17 +17 тепло 1007.7 1004.9
14 26.04 Ю 5 н/о н/о +17.3 +10.4 64 +17 +17 тепло 1007.2 1004.4
15 26.04 Ю 4 н/о н/о +17.2 +10.4 64 +17 +17 тепло 1006.2 1003.4
17 26.04 ЮЗ 4 н/о н/о +16.6 +12.2 75 +16 +16 тепло 1005.4 1002.6
16 26.04 Ю 4 н/о н/о +17.3 +10.9 66 +17 +17 тепло 1005.8 1003.0
18 26.04 СЗ 4 10 км слабый ливневой дождь 10/8
[Cu med, cong Ac As]
+14.1 +11.8 86 +13 +13 по сезону 1004.9 1002.0 0.0
19 26.04 СЗ 2 н/о н/о +13.5 +11.7 89 +13 +13 по сезону 1004.4 1001.5
20 26.04 СЗ 2 н/о н/о +12.8 +11.4 91 +12 +12 по сезону 1004.3 1001.4
21 26.04 С 3 10 км слабый ливневой дождь 10/10 300 м
[Cu med, cong]
+13.3 +12.4 94 +12 +12 прохладно 1004.3 1001.4
23 26.04 СВ 4 н/о н/о +12.1 +11.3 95 +10 +10 холодно 1004.9 1002.0
22 26.04 С 3 н/о н/о +12.9 +12.0 94 +12 +12 прохладно 1004.6 1001.7
00 27.04 СВ 3 15 км {ливн. осадки} 10/10
[Cu med, cong]
+13.3 +11.9 91 +12 +12 прохладно 1005.0 1002.1 +12.1 4
01 27.04 В 4 н/о н/о +13.2 +10.0 81 +12 +12 холодно 1005.3 1002.4
02 27.04 В 2 н/о н/о +14.8 +9.0 68 +15 +15 прохладно 1005.0 1002.1
03 27.04 СВ 3 20 км 10/1
[Cu hum Ac As]
+15.9 +8.6 62 +16 +20 по сезону 1004.6 1001.7
05 27.04 В 3 н/о н/о +17.9 +7.9 52 +18 +18 по сезону 1003.8 1001.0
04 27.04 В 3 н/о н/о +16.9 +7.8 55 +17 +17 прохладно 1004.0 1001.2
06 27.04 ЮВ 3 20 км 9/1
[Cu Sc Ac trans Ci sp]
+18.3 +6.5 46 +19 +23 по сезону 1003.7 1000.9
07 27.04 Ю 5 н/о н/о +17.2 +7.3 52 +17 +17 по сезону 1004.2 1001.4
08 27.04 Ю 5 н/о н/о +16.0 +6.2 52 +15 +15 прохладно 1005.0 1002.1
09 27.04 Ю 4 20 км 9/3
[Cu med, cong Ac As Ci sp]
+15.0 +8.0 63 +14 +14 прохладно 1005.8 1002.9
11 27.04 Ю 4 н/о н/о +13.6 +10.0 79 +12 +12 прохладно 1007.3 1004.4
10 27.04 Ю 3 н/о н/о +14.2 +9.0 71 +13 +13 прохладно 1006.5 1003.6
12 27.04 Ю 4 15 км 9/3
[Cu med, cong Ac trans Ci sp]
+13.5 +8.8 73 +12 +12 прохладно 1007.9 1005.0 +19.4
13 27.04 Ю 2 н/о н/о +13.3 +8.6 73 +13 +13 по сезону 1007.9 1005.0
14 27.04 Ю 4 н/о н/о +13.1 +8.8 75 +12 +12 по сезону 1008.2 1005.3
15 27.04 Ю 3 н/о н/о +13.4 +9.3 76 +12 +12 прохладно 1007.9 1005.0
17 27.04 Ю 3 н/о н/о +13.3 +9.8 79 +12 +12 по сезону 1007.2 1004.3
16 27.04 Ю 3 н/о н/о +13.1 +9.7 80 +12 +12 по сезону 1007.5 1004.6
18 27.04 ЮЗ 2 15 км 9/8
[Cu med, cong Ac As]
+13.6 +9.5 76 +13 +13 по сезону 1007.3 1004.4
19 27.04 ЮЗ 2 н/о н/о +13.2 +9.1 76 +12 +12 по сезону 1007.3 1004.4
20 27.04 СЗ 4 н/о н/о +12.2 +3.2 54 +11 +11 прохладно 1007.4 1004.5
21 27.04 СЗ 2 20 км 8/8
[Cu med, cong Ci sp]
+12.2 +5.2 62 +12 +12 прохладно 1007.7 1004.8
23 27.04 С 2 н/о н/о +14.0 +5.6 57 +14 +14 по сезону 1008.1 1005.2
22 27.04 СЗ 3 н/о н/о +12.7 +5.4 61 +12 +12 прохладно 1008.2 1005.3
00 28.04 СВ 2 20 км 5/1
[Cu med, cong Ac trans Ci sp]
+16.7 +7.6 55 +17 +26 по сезону 1007.9 1005.0 +11.5
01 28.04 З 2 н/о н/о +17.0 +8.4 57 +18 +18 по сезону 1007.6 1004.8
02 28.04 С 1 н/о н/о +18.7 +9.5 55 +20 +20 тепло 1007.1 1004.3
03 28.04 ЮВ 3 20 км 6/6
[Cu med, cong]
+19.8 +9.7 52 +21 +28 комфорт 1006.2 1003.4
05 28.04 Ю 5 н/о н/о +19.9 +4.4 36 +20 +20 по сезону 1005.0 1002.2
04 28.04 ЮВ 5 н/о н/о +19.9 +8.0 46 +21 +21 комфорт 1005.6 1002.8
06 28.04 ЮВ 5 20 км 3/3
[Cu med, cong]
+20.3 +4.0 34 +21 +25 комфорт 1004.7 1001.9
07 28.04 ЮВ 4 н/о н/о +20.0 +3.3 33 +20 +20 тепло 1004.6 1001.8
08 28.04 ЮВ 3 н/о н/о +19.4 +1.4 30 +20 +20 тепло 1004.8 1002.0
09 28.04 Ю 4 20 км 4/3
[Cu med, cong Ac trans]
+17.1 +2.7 38 +17 +17 по сезону 1005.3 1002.5
11 28.04 СВ 2 н/о н/о +15.6 +4.9 49 +16 +16 по сезону 1007.2 1004.3
10 28.04 Ю 3 н/о н/о +16.4 +5.1 47 +16 +16 по сезону 1005.9 1003.1
12 28.04 В 4 20 км 8/3
[Cu hum Ac trans]
+15.1 +10.9 76 +14 +14 по сезону 1008.1 1005.2 +21.6
13 28.04 В 3 н/о н/о +14.3 +11.1 81 +14 +14 по сезону 1008.4 1005.5
14 28.04 СВ 2 н/о н/о +13.7 +10.3 80 +13 +13 по сезону 1008.4 1005.5
15 28.04 С 2 н/о н/о +13.4 +9.9 79 +13 +13 по сезону 1008.3 1005.4
17 28.04 СЗ 2 н/о н/о +12.8 +8.9 77 +12 +12 по сезону 1008.0 1005.1
16 28.04 СЗ 2 н/о н/о +12.8 +8.7 76 +12 +12 по сезону 1008.1 1005.2
18 28.04 С 2 20 км ясно +11.9 +8.2 78 +11 +11 прохладно 1008.0 1005.1
19 28.04 С 1 н/о н/о +11.3 +8.7 84 +11 +11 прохладно 1008.2 1005.3
20 28.04 СВ 1 н/о н/о +10.6 +9.0 90 +10 +10 прохладно 1008.0 1005.1
21 28.04 ЮВ 1 20 км 1/1
[Sc]
+12.1 +9.7 85 +13 +14 по сезону 1008.0 1005.1
23 28.04 С 2 н/о н/о +16.2 +9.2 63 +17 +17 по сезону 1007.3 1004.4
22 28.04 В 1 н/о н/о +14.6 +8.8 68 +16 +16 по сезону 1007.9 1005.0
00 29.04 ЮЗ 2 15 км 4/1
[Cu hum Ci fib]
+17.5 +8.6 56 +18 +30 опасность
простуды
1006.7 1003.9 +10.2
01 29.04 Ю 4 н/о н/о +18.8 +10.9 60 +19 +19 по сезону 1006.2 1003.4
02 29.04 ЮВ 3 н/о н/о +18.4 +10.5 60 +19 +19 по сезону 1005.5 1002.7
03 29.04 Ю 4 15 км 3/1
[Cu med, cong Ci sp]
+20.6 +11.0 54 +23 +35 комфорт 1004.2 1001.4
04 29.04 Ю 4 н/о н/о +22.4 +8.5 41 +24 +24 комфорт 1003.3 1000.5

 

Местоположение метеостанции Tokyo (Япония): широта 35.68 долгота 139.76 высота над уровнем моря 36 м.

В архиве по умолчанию представлена погода в Tokyo за последнюю неделю. Архивные данные за месяц целиком и за предыдущие месяцы, начиная с января 2011 года, Вы можете получить, выбрав интересующий диапазон дат из раскрывающегося списка и нажав кнопку "Ввод!".

Внимание! Время в таблицах - всемирное. Для получения местного времени необходимо прибавить поправку, которая в Tokyo равна 9 ч.

Смотрите также архив погоды в соседних городах и на ближайших метеорологических станциях:

Погода в Yokohama (Япония) (30 км)
Погода в Chiba (Япония) (32 км)
Погода в Kumagaya (Япония) (62 км)
Погода в Chichibu (Япония) (71 км)
Погода в Katsuura (Япония) (77 км)
Погода в Tateyama (Япония) (78 км)
Погода в Ajiro (Япония) (92 км)
Погода в Kawaguchiko (Япония) (93 км)
Погода в Utsunomiya (Япония) (97 км)
Погода в Mishima (Япония) (98 км)

Пояснения к столбцам:

Ветер - указаны скорость ветра в м/с - средняя за 10 мин, порывы в срок и между сроками (в фигурных скобках) и направление, откуда дует ветер: С - северный, СВ - северо-восточный, В - восточный, ЮВ - юго-восточный, Ю - южный, ЮЗ - юго-западный, З - западный, СЗ - северо-западный.
Видимость - горизонтальная дальность видимости в метрах или километрах. При видимости от 1 до 10 км при отсутствии осадков обычно наблюдается дымка, при ухудшении видимости до 1 км и менее - туман. В сухую погоду видимость может ухудшаться дымом, пылью или мглою.
Явления - указаны атмосферные явления, наблюдавшиеся в срок или в последний час перед сроком; фигурными скобками обозначены явления, наблюдавшиеся между сроками (за 1-3 часа до срока); квадратными скобками обозначены град или гололедные отложения с указанием их диаметра в мм.
Облачность - указаны через наклонную черту общая и нижняя облачность в баллах и высота нижней границы облаков в метрах; квадратными скобками обозначены формы облаков: Ci - перистые, Cs - перисто-слоистые, Cc - перисто-кучевые, Ac - высококучевые, As - высокослоистые, Sc - слоисто-кучевые, Ns - слоисто-дождевые, Cu - кучевые, Cb - кучево-дождевые. Подробнее классификацию облаков см. в Атласе облаков (PDF).
T - Температура воздуха - температура, измеренная на высоте 2 м над землей.
Td - Температура точки росы - температура, при понижении до которой содержащийся в воздухе водяной пар достигнет насыщения.
f - Относительная влажность воздуха - влажноcть воздуха, измеренная на высоте 2 м над землей.
Te - Эффективная температура - температура, которую ощущает одетый по сезону человек в тени. Характеристика душности погоды. При расчете учитывается влияние влажности воздуха и скорости ветра на теплоощущения человека.
Tes - Эффективная температура на солнце - температура, которую ощущает человек, с поправкой на солнечный нагрев. Характеристика знойности погоды. Зависит от высоты солнца над горизонтом, облачности и скорости ветра. Ночью, в пасмурную погоду, а также при ветре 12 м/с и более поправка равна нулю.
P - Атмосферное давление - приведенное к уровню моря атмосферное давление.
Po - Атмосферное давление - измеренное на уровне метеостанции атмосферное давление.
Tmin - Минимальная температура - минимум температуры воздуха на высоте 2 м над землей.
Tmax - Максимальная температура - максимум температуры воздуха на высоте 2 м над землей.
R - Количество осадков - Количество выпавших осадков за период времени, мм. При наведении курсора мыши на число - период времени, за который выпало указанное количество осадков.
R24 - Количество осадков - Количество выпавших осадков за 24 часа, мм.
S - Снежный покров - Высота снежного покрова, см. При наведении курсора мыши на число - состояние снежного покрова и степень покрытия местности в баллах.